Regional Weather Roundup
Issued by NWS

Home | Current Version | Previous Version | Graphics & Text | Print | Product List | Glossary On
Versions: 1 2 3 4 5 6 7 8 9 10 11 12 13 14 15 16 17 18 19 20 21 22 23 24 25 26 27 28 29 30 31 32 33 34 35 36 37 38 39 40 41 42 43 44 45 46 47 48 49 50
000
ASUS44 KMEG 050710
RWRTN
TENNESSEE HOURLY STATE WEATHER ROUNDUP
NATIONAL WEATHER SERVICE MEMPHIS TN
200 AM CDT WED AUG 05 2015

TNZ002-004-019-021-049-052-054-088>092-050800-
WEST TENNESSEE

CITY           SKY/WX    TMP DP  RH WIND       PRES   REMARKS
MEMPHIS INTL   CLOUDY    86  68  54 CALM      29.97F
NWS MEMPHIS      N/A     79 N/A N/A MISG        N/A
JACKSON        MOCLDY    77  74  90 CALM      29.99S
DYERSBURG        N/A    N/A N/A N/A MISG        N/A
UNION CITY     CLEAR    N/A N/A N/A CALM      29.98S
PARIS          CLEAR     73  72  94 CALM      30.00F
LEXINGTON      PTCLDY    75  75 100 CALM      29.99S
$$

TNZ008-025-027-028-033-062-065-066-050800-
NORTH MIDDLE TENNESSEE

CITY           SKY/WX    TMP DP  RH WIND       PRES   REMARKS
NASHVILLE      MOCLDY    78  71  79 CALM      30.01F
CLARKSVILLE    MOCLDY    72  68  87 CALM      29.99F
SMYRNA         MOCLDY    75  72  91 CALM      30.02S
COOKEVILLE     CLEAR     73  73 100 CALM      30.03S
CROSSVILLE     PTCLDY    72  68  87 CALM      30.09F
$$

TNZ061-075-076-078-094-096-097-050800-
SOUTH MIDDLE TENNESSEE

CITY           SKY/WX    TMP DP  RH WIND       PRES   REMARKS
FAYETTEVILLE     N/A     79  66  65 CALM      30.03F
TULLAHOMA      MOCLDY    75  70  83 CALM      30.04S
WINCHESTER     PTCLDY    73  72  94 CALM      30.04R
MCMINNVILLE    CLEAR     73  73 100 CALM      30.03S
COLUMBIA       CLEAR     75  75 100 CALM      30.00S
SHELBYVILLE    CLEAR     75  73  94 CALM      30.02F
$$

TNZ017-018-042-046-047-050800-
NORTHEAST TENNESSEE

CITY           SKY/WX    TMP DP  RH WIND       PRES   REMARKS
TRI CITIES     FOG       66  66 100 E3        30.07F VSB 1/2
ELIZABETHTON   SUNNY     63  61  94 CALM      30.09F
$$

TNZ012-013-036-069-073-074-050800-
CENTRAL EAST TENNESSEE

CITY           SKY/WX    TMP DP  RH WIND       PRES   REMARKS
KNOXVILLE      MOCLDY    73  65  75 NE5       30.02F
OAK RIDGE      MOCLDY    75  68  78 CALM      30.05F
GATLINBURG     SUNNY     72  63  73 CALM      30.04F
MORRISTOWN     SUNNY     70  64  83 CALM      30.06F
$$

TNZ083-085-099-050800-
SOUTHEAST TENNESSEE

CITY           SKY/WX    TMP DP  RH WIND       PRES   REMARKS
CHATTANOOGA    MOCLDY    78  71  79 N3        30.02S
$$

SKY/WX REPORTED AS FAIR MEANS FEW OR NO CLOUDS BELOW
12 THOUSAND FEET.



USA.gov is the U.S. government's official web portal to all federal, state and local government web resources and services.